Tracking 30743 objects as of 25-Jun-2025
HD Live streaming from Space Station
objects crossing your sky now

EDUSAT

Track EDUSAT now!
10-day predictions
EDUSAT is classified as:


NORAD ID: 37788
Int'l Code: 2011-044A
Perigee: 626.1 km
Apogee: 675.1 km
Inclination: 98.3 °
Period: 97.6 minutes
Semi major axis: 7021 km
RCS: 0.1421 m2 (medium)
Launch date: August 17, 2011
Source: Italy (IT)
Launch site: Orenburg, Russia (OREN)

EduSat is a microsatellite built by the University of Rome.
Your satellite tracking list
Your tracking list is empty




NASA's NSSDC Master Catalog

Two Line Element Set (TLE):
1 37788U 11044A   25175.64406988  .00000603  00000-0  95852-4 0  9990
2 37788  98.3111  59.1930 0034936 179.6644 209.3934 14.75533281743785
Source of the keplerian elements: AFSPC